Resoconti di bolidi

Nov 13, 2018 - Dec 14, 2018
Trovati resoconti: 2148  negli ultimi 30 giorni  Pagina 27 / 43
IDDate e tempo T.U. (Tempo Universale)Data e tempo localeRegioneCittàStatoDur.MagnitudineSuono differitoSuono contemporaneoFrag.OsservatoreLivello di esperienza
Evento 5080-2018
5080a2018-11-19 14:15 UT2018-11-19 07:15 MSTUS MeridianID≈3,5s -6---SarahW 3
Evento 5079-2018
5079a2018-11-19 14:15 UT2018-11-19 07:15 MSTUS TaylorsvilleUT≈45s -20---LisaT 1
Evento 5078-2018
5078a2018-11-19 14:00 UT2018-11-19 06:00 PSTUS AlbanyOR≈3,5s -12--?LindaS 1
5078b2018-11-19 14:00 UT2018-11-19 06:00 PSTUS AlbanyOR≈7,5s -20--?CarolH 3
5078c2018-11-19 14:05 UT2018-11-19 06:05 PSTUS VancouverWA≈3,5s -19---SteveP 2
5078d2018-11-19 14:05 UT2018-11-19 06:05 PSTUS Battle GroundWA≈3,5s 0---JaneD 2
5078e2018-11-19 14:05 UT2018-11-19 06:05 PSTUS WilsonvilleOR≈7,5s -14---DF 1
5078f2018-11-19 14:07 UT2018-11-19 06:07 PSTUS AlbanyOR≈20s -27--?KristiM 3
5078g2018-11-19 14:10 UT2018-11-19 06:10 PSTUS PortlandOR≈3,5s -8--?JJJ 2
5078h2018-11-19 14:10 UT2018-11-19 06:10 PSTUS EugeneOR≈3,5s -18--JonathanL 2
5078i2018-11-19 14:10 UT2018-11-19 06:10 PSTUS TualatinOR≈3,5s -12???TiffanyL 1
5078j2018-11-19 14:12 UT2018-11-19 06:12 PSTUS PortlandOR≈7,5s -18---MichaelS 3
5078k2018-11-19 14:13 UT2018-11-19 06:13 PSTUS VancouverWA≈3,5s 0---JonB 1
5078l2018-11-19 14:15 UT2018-11-19 06:15 PSTUS MilwaukieOR≈3,5s -23---RonnL 2
5078m2018-11-19 14:15 UT2018-11-19 06:15 PSTUS SalemOR≈1,5s -22---sallyG 1
5078n2018-11-19 14:20 UT2018-11-19 06:20 PSTUS OR≈3,5s -7---TanaB 2
5078o2018-11-19 14:36 UT2018-11-19 06:36 PSTUS ToledoOR≈7,5s 0???MaleahW 1
5078p2018-11-19 14:41 UT2018-11-19 06:41 PSTUS BendOR≈3,5s -26--WendyR 1
5078q2018-11-19 14:43 UT2018-11-19 06:43 PSTUS AberdeenWA<1s -7---Barbara S 1
Evento 5077-2018
5077a2018-11-19 13:45 UT2018-11-19 06:45 MSTUS Fort CollinsCO<1s -25---GregG 2
Evento 5076-2018
5076a2018-11-19 12:30 UT2018-11-19 04:30 PSTUS SeattleWA≈3,5s -11--?JenniferC 2
5076b2018-11-19 13:05 UT2018-11-19 05:05 PSTUS HillsboroOR≈3,5s -17---RobynP 1
Evento 5075-2018
5075a2018-11-19 11:50 UT2018-11-19 04:50 MSTUS LimonCO≈3,5s -8---JonR 2
Evento 5074-2018
5074a2018-11-19 11:06 UT2018-11-19 06:06 ESTUS MabletonGA≈1,5s -13---JonathanB 3
Evento 5073-2018
5073a2018-11-19 11:00 UT2018-11-19 05:00 CSTUS ChicagoIL≈3,5s -20--?GrantC 1
Evento 5072-2018
5072a2018-11-19 10:18 UT2018-11-19 05:18 ESTUS LutzFL≈1,5s -13---JanetS 1
Evento 5071-2018
5071a2018-11-19 10:15 UT2018-11-19 05:15 ESTUS McLeanVA≈1,5s -13--?JeffK 1
5071b2018-11-19 10:25 UT2018-11-19 05:25 ESTUS LambertvilleNJ≈3,5s -12---dianeW 1
5071c2018-11-19 10:27 UT2018-11-19 05:27 ESTUS ArlingtonVA≈1,5s -13--AndewB 2
5071d2018-11-19 10:28 UT2018-11-19 05:28 ESTUS ShamongNJ<1s -13--?CraigO 1
Evento 5070-2018
5070a2018-11-19 09:46 UT2018-11-19 01:46 PSTUS HansvilleWA? -8???GregJ 2
Evento 5069-2018
5069a2018-11-19 07:40 UT2018-11-18 23:40 PSTUS ShorelineWA≈7,5s -7---Marilyn H 2
Evento 5068-2018
5068a2018-11-19 07:25 UT2018-11-18 23:25 PSTUS ChowchillaCA≈7,5s 0---JohnH 3
Evento 5067-2018
5067a2018-11-19 07:22 UT2018-11-19 01:22 CSTUS Round LakeIL≈1,5s -14--?ChristinaP 2
5067b2018-11-19 07:30 UT2018-11-19 02:30 ESTUS FennvilleMI≈7,5s -27--ColinM 1
5067c2018-11-19 07:58 UT2018-11-19 01:58 CSTUS Chicago RidgeIL≈1,5s -5--PamelaR 1
5067d2018-11-19 07:59 UT2018-11-19 01:59 CSTUS Elmwood ParkIL≈1,5s -7--ChrisP 3
5067e2018-11-19 08:01 UT2018-11-19 02:01 CSTUS ChicagoIL<1s 0?--SophieD 1
5067f2018-11-19 08:04 UT2018-11-19 03:04 ESTUS TaylorMI≈3,5s 0---DanielA 1
5067g2018-11-19 08:07 UT2018-11-19 02:07 CSTUS WhitewaterWI≈3,5s -19---LibbyH 1
5067h2018-11-19 08:01 UT2018-11-19 02:01 CSTUS ChicagoIL≈1,5s -18--?ChrisS 2
5067i2018-11-19 08:10 UT2018-11-19 02:10 CSTUS Cedar RapidsIA≈3,5s -11???JustineM 1
5067j2018-11-19 08:00 UT2018-11-19 03:00 ESTUS Saint JohnsMI≈1,5s -4---ChrisB 1
5067k2018-11-19 08:00 UT2018-11-19 02:00 CSTUS Des PlainesIL≈3,5s -27---SaraS 1
5067l2018-11-19 08:10 UT2018-11-19 02:10 CSTUS SandwichIL≈1,5s -8---TerriH 3
5067m2018-11-19 08:10 UT2018-11-19 03:10 ESTUS BeldingMI≈1,5s -13--?billF 2
5067n2018-11-19 08:04 UT2018-11-19 02:04 CSTUS ChicagoIL≈3,5s -20--?PatrickS 3
5067o2018-11-19 08:15 UT2018-11-19 03:15 ESTCA New TecumsethOntario≈3,5s -14---GlendaM 1
5067p2018-11-19 08:00 UT2018-11-19 02:00 CSTUS WestmontIL≈1,5s -15---CraigG 3
Evento 5066-2018
5066a2018-11-19 06:49 UT2018-11-18 23:49 MSTUS BoiseID≈3,5s -6-?-TinaQ 1